| time (UTC) | temp F | wind direction | speed MPH | gust MPH | rain 1hr in | rain 24hr in | rain mn in | humidity % | barometer mb |
| 20260504120107 | 50 | 254 | 0.0 | 8.0 | 0.00 | 0.00 | 0.00 | 60 | 1012.3 |
| 20260504081525 | 35 | 276 | 0.0 | 0.0 | 0.00 | 0.00 | 0.00 | 88 | 1011.4 |
| 20260504050010 | 36 | 276 | 0.0 | 0.0 | 0.00 | 0.00 | 0.00 | 87 | 1011.5 |
| 20260504044514 | 35 | 276 | 0.0 | 0.0 | 0.00 | 0.00 | 0.00 | 85 | 1011.6 |
| 20260504043006 | 35 | 276 | 0.0 | 0.0 | 0.00 | 0.00 | 0.00 | 84 | 1011.6 |
| 20260504041504 | 35 | 276 | 0.0 | 0.0 | 0.00 | 0.00 | 0.00 | 82 | 1011.4 |
| 20260504040109 | 36 | 276 | 0.0 | 0.0 | 0.00 | 0.00 | 0.00 | 81 | 1011.3 |
| 20260504034601 | 36 | 276 | 0.0 | 0.0 | 0.00 | 0.00 | 0.00 | 80 | 1011.4 |
| 20260504033101 | 36 | 276 | 0.0 | 0.0 | 0.00 | 0.00 | 0.00 | 81 | 1011.2 |
| 20260504031604 | 37 | 276 | 0.0 | 0.0 | 0.00 | 0.00 | 0.00 | 81 | 1011.2 |
| 20260504030057 | 37 | 276 | 0.0 | 0.0 | 0.00 | 0.00 | 0.00 | 79 | 1011.1 |
| 20260504024558 | 37 | 276 | 0.0 | 0.0 | 0.00 | 0.00 | 0.00 | 78 | 1011.1 |
| 20260504023058 | 38 | 276 | 0.0 | 0.0 | 0.00 | 0.00 | 0.00 | 77 | 1011.1 |
| 20260504021555 | 39 | 276 | 0.0 | 0.0 | 0.00 | 0.00 | 0.00 | 75 | 1011.1 |
| 20260504020054 | 39 | 276 | 0.0 | 0.0 | 0.00 | 0.00 | 0.00 | 72 | 1011.0 |
| 20260504014600 | 41 | 276 | 0.0 | 0.0 | 0.00 | 0.00 | 0.00 | 71 | 1011.0 |
| 20260504013058 | 42 | 276 | 0.0 | 0.0 | 0.00 | 0.00 | 0.00 | 67 | 1010.8 |
| 20260504011551 | 44 | 276 | 0.0 | 0.0 | 0.00 | 0.00 | 0.00 | 61 | 1010.6 |
| 20260504010110 | 45 | 276 | 0.0 | 0.0 | 0.00 | 0.00 | 0.00 | 57 | 1010.4 |
| 20260504004550 | 46 | 276 | 0.0 | 0.0 | 0.00 | 0.00 | 0.00 | 54 | 1010.3 |
| 20260504003049 | 46 | 276 | 0.0 | 0.0 | 0.00 | 0.00 | 0.00 | 51 | 1010.0 |
| 20260504001558 | 47 | 276 | 0.0 | 0.0 | 0.00 | 0.00 | 0.00 | 47 | 1009.8 |
| 20260504000050 | 48 | 276 | 0.0 | 2.0 | 0.00 | 0.00 | 0.00 | 43 | 1009.5 |
| 20260503234549 | 49 | 304 | 0.0 | 6.0 | 0.00 | 0.00 | 0.00 | 41 | 1009.3 |
| 20260503233054 | 50 | 306 | 5.0 | 11.0 | 0.00 | 0.00 | 0.00 | 38 | 1009.2 |
| 20260503231547 | 51 | 309 | 6.0 | 13.0 | 0.00 | 0.00 | 0.00 | 37 | 1009.0 |
| 20260503230046 | 52 | 333 | 7.0 | 19.0 | 0.00 | 0.00 | 0.00 | 36 | 1009.0 |
| 20260503224546 | 52 | 301 | 5.0 | 11.0 | 0.00 | 0.00 | 0.00 | 39 | 1009.0 |
| 20260503223044 | 52 | 310 | 5.0 | 16.0 | 0.00 | 0.00 | 0.00 | 39 | 1008.9 |
| 20260503221551 | 51 | 317 | 8.0 | 16.0 | 0.00 | 0.00 | 0.00 | 40 | 1008.9 |
| 20260503220047 | 51 | 306 | 4.0 | 13.0 | 0.00 | 0.00 | 0.00 | 41 | 1009.0 |
| 20260503214542 | 51 | 323 | 9.0 | 20.0 | 0.00 | 0.00 | 0.00 | 39 | 1009.0 |
| 20260503213039 | 51 | 272 | 8.0 | 22.0 | 0.00 | 0.00 | 0.00 | 40 | 1008.9 |
| 20260503211540 | 51 | 219 | 8.0 | 16.0 | 0.00 | 0.00 | 0.00 | 42 | 1008.9 |
| 20260503210048 | 50 | 309 | 6.0 | 19.0 | 0.00 | 0.00 | 0.00 | 43 | 1008.9 |
| 20260503204546 | 50 | 310 | 4.0 | 15.0 | 0.00 | 0.00 | 0.00 | 43 | 1008.8 |
| 20260503203037 | 50 | 319 | 9.0 | 19.0 | 0.00 | 0.00 | 0.00 | 44 | 1008.8 |
| 20260503201537 | 50 | 355 | 5.0 | 23.0 | 0.00 | 0.00 | 0.00 | 44 | 1008.8 |
| 20260503200043 | 50 | 342 | 7.0 | 21.0 | 0.00 | 0.00 | 0.00 | 44 | 1009.0 |
| 20260503194534 | 51 | 302 | 9.0 | 24.0 | 0.00 | 0.00 | 0.00 | 46 | 1008.9 |
| 20260503193034 | 50 | 355 | 6.0 | 20.0 | 0.00 | 0.00 | 0.00 | 46 | 1008.9 |
| 20260503191534 | 48 | 360 | 5.0 | 16.0 | 0.00 | 0.00 | 0.00 | 48 | 1009.0 |
| 20260503190043 | 49 | 306 | 7.0 | 16.0 | 0.00 | 0.00 | 0.00 | 48 | 1009.0 |
| 20260503184532 | 49 | 335 | 7.0 | 20.0 | 0.00 | 0.00 | 0.00 | 45 | 1009.1 |
| 20260503183033 | 50 | 342 | 8.0 | 17.0 | 0.00 | 0.00 | 0.00 | 47 | 1009.1 |
| 20260503181532 | 49 | 330 | 6.0 | 18.0 | 0.00 | 0.00 | 0.00 | 47 | 1008.9 |
| 20260503180030 | 49 | 355 | 9.0 | 19.0 | 0.00 | 0.00 | 0.00 | 45 | 1008.9 |
| 20260503174530 | 49 | 317 | 14.0 | 25.0 | 0.00 | 0.00 | 0.00 | 44 | 1008.7 |
| 20260503173034 | 49 | 324 | 8.0 | 16.0 | 0.00 | 0.00 | 0.00 | 47 | 1008.8 |
| 20260503171527 | 49 | 333 | 7.0 | 13.0 | 0.00 | 0.00 | 0.00 | 47 | 1008.8 |